Location: Prague
(50.0830°N, 14.4670°E)
Time: 20:22:13
(UTC+01:00)

XW-2B - Visible Passes

Search period start: 07 December 2021 00:00
Search period end: 17 December 2021 00:00
Orbit: 504 x 522 km, 97.5° (Epoch: 07 December)

Date Brightness Start Highest point End Pass type
(mag) Time Alt. Az. Time Alt. Az. Time Alt. Az.
07 Dec ? 06:20:29 10° NNE 06:24:18 84° WNW 06:28:06 10° SSW visible
07 Dec ? 17:04:24 10° SSE 17:08:09 87° ENE 17:11:58 10° NNW visible
08 Dec ? 06:04:52 10° NNE 06:08:40 65° E 06:12:27 10° S visible
08 Dec ? 16:48:52 10° SSE 16:52:33 58° ENE 16:56:18 10° N visible
08 Dec ? 18:24:58 10° WSW 18:26:57 14° W 18:28:56 10° WNW visible
09 Dec ? 05:49:21 10° NNE 05:53:01 43° E 05:56:39 10° S visible
09 Dec ? 16:33:28 10° SE 16:36:59 39° ENE 16:40:33 10° N visible
09 Dec ? 18:08:22 10° SW 18:11:10 20° W 18:13:59 10° NW visible
10 Dec ? 05:33:56 10° NNE 05:37:19 29° E 05:40:41 10° SSE visible
10 Dec ? 07:08:01 10° N 07:11:15 27° WNW 07:14:30 10° SW visible
10 Dec ? 17:52:08 10° SSW 17:55:25 28° W 17:58:44 10° NW visible
11 Dec ? 05:18:38 10° NE 05:21:34 21° E 05:24:29 10° SE visible
11 Dec ? 06:52:09 10° N 06:55:43 38° WNW 06:59:15 10° SW visible
11 Dec ? 17:36:08 10° S 17:39:42 41° W 17:43:19 10° NNW visible
12 Dec ? 05:03:37 10° NE 05:05:48 15° E 05:07:57 10° SE visible
12 Dec ? 06:36:24 10° N 06:40:08 56° WNW 06:43:52 10° SSW visible
12 Dec ? 17:20:18 10° S 17:24:01 62° WSW 17:27:48 10° NNW visible
13 Dec ? 06:20:42 10° NNE 06:24:32 84° WNW 06:28:20 10° SSW visible
13 Dec ? 17:04:35 10° SSE 17:08:22 88° ENE 17:12:11 10° NNW visible
14 Dec ? 06:05:05 10° NNE 06:08:53 65° E 06:12:39 10° S visible
14 Dec ? 16:49:02 10° SSE 16:52:45 59° ENE 16:56:30 10° N visible
14 Dec ? 18:25:08 10° WSW 18:27:08 14° W 18:29:09 10° WNW visible
15 Dec ? 05:49:31 10° NNE 05:53:12 43° E 05:56:49 10° S visible
15 Dec ? 16:33:37 10° SE 16:37:09 39° ENE 16:40:44 10° N visible
15 Dec ? 18:08:31 10° SW 18:11:19 20° W 18:14:10 10° NW visible
16 Dec ? 05:34:05 10° NNE 05:37:28 29° E 05:40:49 10° SSE visible
16 Dec ? 07:08:10 10° N 07:11:25 27° WNW 07:14:37 10° SW visible
16 Dec ? 17:52:15 10° SSW 17:55:33 28° W 17:58:53 10° NW visible
